Weather History for LHSN - September, 2013

Change the Weather History Date:

Monday, September 9, 2013

  Actual Average (LHBP) Record (LHBP)
Temperature  
Mean Temperature 61 °F -  
Max Temperature 71 °F 70 °F 84 °F (2002)
Min Temperature 51 °F 50 °F 41 °F (2004)
Degree Days  
Heating Degree Days 4    
Growing Degree Days 11 (Base 50)    
Moisture  
Dew Point 51 °F    
Average Humidity 77    
Maximum Humidity 100    
Minimum Humidity 43    
Precipitation  
Precipitation 0.00 in - - ()
Sea Level Pressure  
Sea Level Pressure 30.07 in    
Wind  
Wind Speed 3 mph ()    
Max Wind Speed 11 mph    
Max Gust Speed -    
Visibility 5.3 miles    
Events Rain    
Averages and records for this station are not official NWS values.
T = Trace of Precipitation, MM = Missing Value Source: Averaged Metar Reports

Daily Weather History Graph

Daily Weather History Graph

Search for Another Location

Airport or City:

Trip Planner

Search our weather history database for the weather conditions in past years. The results will help you decide how hot, cold, wet, or windy it might be!

Date:

Astronomy

Sep. 09, 2013 Rise Set
Actual Time 6:08 AM CEST 7:03 PM CEST
Civil Twilight 5:37 AM CEST 7:34 PM CEST
Nautical Twilight 5:00 AM CEST 8:11 PM CEST
Astronomical Twilight 4:21 AM CEST 8:49 PM CEST
Moon 10:30 AM CEST (9/9) 8:46 PM CEST (9/9)
Length of Visible Light 13h 56m
Length of Day
12h 54m
Waxing Crescent, 16% of the Moon is Illuminated
Sep 9
Waxing Crescent
Sep 12
First Quarter
Sep 19
Full
Sep 27
Last Quarter
Oct 5
New

Hourly Weather History & Observations

Time (CEST) Temp. Dew Point Humidity Pressure Visibility Wind Dir Wind Speed Gust Speed Precip Events Conditions
12:15 AM 57.2 °F 46.4 °F 67% 30.12 in - Calm Calm - N/A   Clear
12:45 AM 55.4 °F 46.4 °F 72% 30.12 in - Calm Calm - N/A   Clear
1:15 AM 55.4 °F 44.6 °F 67% 30.12 in - Calm Calm - N/A   Clear
1:45 AM 55.4 °F 44.6 °F 67% 30.12 in - Calm Calm - N/A   Clear
2:15 AM 55.4 °F 44.6 °F 67% 30.12 in - East 4.5 mph - N/A   Clear
2:45 AM 55.4 °F 44.6 °F 67% 30.09 in - East 2.2 mph - N/A   Clear
3:15 AM 53.6 °F 44.6 °F 72% 30.09 in - East 2.2 mph - N/A   Clear
3:45 AM - - N/A% - - Variable 4.5 mph - N/A   Clear
4:15 AM 53.6 °F 44.6 °F 72% 30.09 in - East 2.2 mph - N/A   Clear
4:45 AM 51.8 °F 44.6 °F 76% 30.06 in - East 2.2 mph - N/A   Clear
5:15 AM 51.8 °F 44.6 °F 76% 30.06 in - East 2.2 mph - N/A   Clear
5:45 AM 51.8 °F 42.8 °F 71% 30.06 in - East 2.2 mph - N/A   Clear
6:15 AM 51.8 °F 44.6 °F 76% 30.06 in - East 2.2 mph - N/A   Clear
6:45 AM - - N/A% - 6.2 mi Variable 4.5 mph - N/A   Clear
7:15 AM 55.4 °F 44.6 °F 67% 30.06 in - East 2.2 mph - N/A   Clear
7:45 AM 57.2 °F 46.4 °F 67% 30.06 in - East 2.2 mph - N/A   Clear
8:15 AM 60.8 °F 48.2 °F 63% 30.06 in - SE 4.5 mph - N/A   Clear
8:45 AM 62.6 °F 48.2 °F 59% 30.04 in - SE 4.5 mph - N/A   Clear
9:15 AM 66.2 °F 48.2 °F 52% 30.06 in - SSE 6.7 mph - N/A   Clear
9:45 AM - - N/A% - 6.2 mi SSE 6.7 mph - N/A   Clear
10:15 AM 69.8 °F 50.0 °F 49% 30.04 in - SSE 11.2 mph - N/A   Clear
10:45 AM 69.8 °F 46.4 °F 43% 30.04 in - SSE 11.2 mph - N/A   Clear
11:15 AM 71.6 °F 48.2 °F 43% 30.06 in - SSW 6.7 mph - N/A   Clear
11:21 AM 71.6 °F 48.2 °F 43% 30.06 in 6.2 mi SSW 6.7 mph - N/A Rain Light Rain Showers
11:45 AM 69.8 °F 51.8 °F 53% 30.06 in 6.2 mi West 4.5 mph - N/A Rain Light Rain Showers
12:15 PM 66.2 °F 53.6 °F 64% 30.06 in 6.2 mi Variable 4.5 mph - N/A Rain Light Rain Showers
12:45 PM - - N/A% - 6.2 mi SSE 6.7 mph - N/A   Mostly Cloudy
1:15 PM 62.6 °F 55.4 °F 77% 30.09 in 6.2 mi NW 6.7 mph - N/A Rain Light Rain Showers
1:33 PM 62.6 °F 57.2 °F 82% 30.06 in 1.9 mi NNW 4.5 mph - N/A Rain Rain Showers
1:45 PM 60.8 °F 55.4 °F 82% 30.06 in 2.5 mi WNW 4.5 mph - N/A Rain Rain Showers
2:08 PM 60.8 °F 55.4 °F 82% 30.06 in 6.2 mi Calm Calm - N/A Rain Light Rain Showers
2:15 PM 60.8 °F 53.6 °F 77% 30.06 in 6.2 mi Calm Calm - N/A Rain Light Rain Showers
2:45 PM 60.8 °F 53.6 °F 77% 30.06 in 6.2 mi East 2.2 mph - N/A Rain Light Rain Showers
3:15 PM 60.8 °F 55.4 °F 82% 30.06 in 6.2 mi NE 2.2 mph - N/A Rain Light Rain Showers
3:45 PM - - N/A% - 6.2 mi Variable 4.5 mph - N/A   Mostly Cloudy
4:15 PM 59.0 °F 55.4 °F 88% 30.06 in 3.1 mi NW 2.2 mph - N/A Rain Rain Showers
4:45 PM 59.0 °F 57.2 °F 94% 30.06 in 5.0 mi NW 4.5 mph - N/A Rain Light Rain Showers
5:15 PM 59.0 °F 57.2 °F 94% 30.06 in 5.0 mi NW 4.5 mph - N/A Rain Light Rain Showers
5:45 PM 57.2 °F 55.4 °F 94% 30.06 in 6.2 mi NW 4.5 mph - N/A Rain Light Rain Showers
6:15 PM 57.2 °F 55.4 °F 94% 30.06 in 6.2 mi NNW 2.2 mph - N/A Rain Light Rain Showers
6:45 PM - - N/A% - 6.2 mi Variable 4.5 mph - N/A   Mostly Cloudy
7:15 PM 57.2 °F 57.2 °F 100% 30.09 in 6.2 mi Variable 4.5 mph - N/A   Overcast
7:45 PM 57.2 °F 55.4 °F 94% 30.09 in 6.2 mi NNW 2.2 mph - N/A   Overcast
8:15 PM 57.2 °F 55.4 °F 94% 30.09 in 6.2 mi Calm Calm - N/A   Overcast
8:45 PM 59.0 °F 57.2 °F 94% 30.09 in 6.2 mi NNE 2.2 mph - N/A   Overcast
9:15 PM 57.2 °F 57.2 °F 100% 30.09 in 6.2 mi Calm Calm - N/A   Mostly Cloudy
9:45 PM - - N/A% - 4.3 mi Variable 4.5 mph - N/A   Mostly Cloudy
10:15 PM 57.2 °F 55.4 °F 94% 30.09 in 5.0 mi West 2.2 mph - N/A   Unknown
10:45 PM 57.2 °F 55.4 °F 94% 30.09 in 3.7 mi West 2.2 mph - N/A   Unknown
11:12 PM 55.4 °F 55.4 °F 100% 30.09 in 3.1 mi Calm Calm - N/A   Scattered Clouds
11:15 PM 55.4 °F 55.4 °F 100% 30.09 in 3.1 mi Calm Calm - N/A   Scattered Clouds
11:45 PM 55.4 °F 55.4 °F 100% 30.09 in 3.1 mi West 2.2 mph - N/A   Scattered Clouds